Weather History for Boulder Muni, Boulder, CO, CO

Change the Weather History Date:

Tuesday, December 24, 2013

  Actual Average (KDEN) Record (KDEN)
Temperature  
Mean Temperature 41 °F 30 °F  
Max Temperature 50 °F 42 °F 70 °F (1955)
Min Temperature 32 °F 17 °F -25 °F (1876)
Degree Days  
Heating Degree Days 24 35  
Month to date heating degree days 842  
Since 1 July heating degree days 2224  
Cooling Degree Days 0 0  
Month to date cooling degree days 0  
Year to date cooling degree days 769  
Moisture  
Dew Point 17 °F    
Average Humidity 38    
Maximum Humidity 56    
Minimum Humidity 23    
Precipitation  
Precipitation 0.01 in 0.01 in 2.00 in (1982)
Month to date precipitation 0.28  
Year to date precipitation 14.23  
Snow  
Snow 0.00 in - - ()
Month to date snowfall  
Since 1 July snowfall  
Snow Depth -    
Sea Level Pressure  
Sea Level Pressure 30.08 in    
Wind  
Wind Speed 11 mph (West)    
Max Wind Speed 41 mph    
Max Gust Speed 53 mph    
Visibility 10 miles    
Events      
T = Trace of Precipitation, MM = Missing Value Source: NWS Daily Summary

Daily Weather History Graph

Daily Weather History Graph

Search for Another Location

Airport:

Trip Planner

Search our weather history database for the weather conditions in past years. The results will help you decide how hot, cold, wet, or windy it might be!

Date:

Astronomy

Dec. 24, 2013 Rise Set
Actual Time 7:20 AM MST 4:40 PM MST
Civil Twilight 6:50 AM MST 5:11 PM MST
Nautical Twilight 6:16 AM MST 5:45 PM MST
Astronomical Twilight 5:43 AM MST 6:18 PM MST
Moon 11:51 PM MST (12/24) 11:16 AM MST (12/24)
Length of Visible Light 10h 20m
Length of Day
9h 19m
Waning Gibbous, 58% of the Moon is Illuminated
Dec 24
Waning Gibbous
Dec 25
Last Quarter
Jan 1
New
Jan 7
First Quarter
Jan 15
Full

Hourly Weather History & Observations

Time (MST) Temp. Windchill Dew Point Humidity Pressure Visibility Wind Dir Wind Speed Gust Speed Precip Events Conditions
12:15 AM 42.8 °F - 23.0 °F 46% 30.03 in 10.0 mi Calm Calm - N/A   Clear
12:35 AM 44.6 °F - 23.0 °F 43% 30.03 in 10.0 mi Calm Calm - N/A   Clear
12:55 AM 42.8 °F 39.3 °F 23.0 °F 46% 30.01 in 10.0 mi South 5.8 mph - N/A   Clear
1:15 AM 46.4 °F 42.9 °F 23.0 °F 40% 29.99 in 10.0 mi NE 6.9 mph - N/A   Clear
1:35 AM 44.6 °F 43.1 °F 23.0 °F 43% 29.99 in 10.0 mi NE 3.5 mph - N/A   Clear
1:55 AM 44.6 °F 39.7 °F 23.0 °F 43% 29.99 in 10.0 mi NNE 9.2 mph - N/A   Clear
2:15 AM 44.6 °F 39.7 °F 23.0 °F 43% 29.99 in 10.0 mi NNE 9.2 mph - N/A   Clear
2:35 AM 44.6 °F 40.7 °F 21.2 °F 39% 29.98 in 10.0 mi West 6.9 mph - N/A   Clear
2:55 AM 42.8 °F 40.1 °F 23.0 °F 46% 29.95 in 10.0 mi WSW 4.6 mph - N/A   Clear
3:15 AM 44.6 °F 38.4 °F 23.0 °F 43% 29.96 in 10.0 mi SE 12.7 mph 20.7 mph N/A   Clear
3:35 AM 44.6 °F 40.7 °F 21.2 °F 39% 29.97 in 10.0 mi East 6.9 mph - N/A   Clear
3:55 AM 37.4 °F 31.4 °F 23.0 °F 56% 29.97 in 10.0 mi East 8.1 mph - N/A   Clear
4:15 AM 37.4 °F 32.1 °F 23.0 °F 56% 29.97 in 10.0 mi SSE 6.9 mph - N/A   Clear
4:35 AM 44.6 °F 38.4 °F 21.2 °F 39% 29.94 in 10.0 mi East 12.7 mph 20.7 mph N/A   Clear
4:55 AM 50.0 °F - 21.2 °F 32% 29.94 in 10.0 mi SSE 11.5 mph 18.4 mph N/A   Clear
5:15 AM 48.2 °F - 21.2 °F 34% 29.95 in 10.0 mi East 6.9 mph - N/A   Clear
5:35 AM 48.2 °F - 19.4 °F 32% 29.94 in 10.0 mi North 5.8 mph - N/A   Clear
5:55 AM 50.0 °F - 19.4 °F 30% 29.94 in 10.0 mi NE 10.4 mph 23.0 mph N/A   Clear
6:15 AM 48.2 °F - 21.2 °F 34% 29.93 in 10.0 mi West 26.5 mph 36.8 mph N/A   Clear
6:35 AM 50.0 °F - 19.4 °F 30% 29.92 in 10.0 mi West 29.9 mph 44.9 mph 0.01 in   Clear
6:55 AM 50.0 °F - 19.4 °F 30% 29.91 in 10.0 mi West 36.8 mph 47.2 mph 0.01 in   Clear
7:15 AM 48.2 °F - 21.2 °F 34% 29.93 in 10.0 mi West 33.4 mph 49.5 mph N/A   Clear
7:35 AM 50.0 °F - 21.2 °F 32% 29.91 in 10.0 mi West 34.5 mph 49.5 mph N/A   Clear
7:55 AM 48.2 °F - 21.2 °F 34% 29.92 in 10.0 mi WSW 34.5 mph 47.2 mph N/A   Clear
8:15 AM 48.2 °F - 21.2 °F 34% 29.93 in 10.0 mi WSW 29.9 mph 48.3 mph N/A   Clear
8:35 AM 50.0 °F - 23.0 °F 35% 29.92 in 10.0 mi West 41.4 mph 50.6 mph N/A   Clear
8:55 AM 50.0 °F - 23.0 °F 35% 29.95 in 10.0 mi WSW 35.7 mph 52.9 mph N/A   Clear
9:15 AM 50.0 °F - 23.0 °F 35% 29.95 in 10.0 mi West 39.1 mph 49.5 mph N/A   Clear
9:35 AM 50.0 °F - 23.0 °F 35% 29.96 in 10.0 mi West 31.1 mph 41.4 mph N/A   Clear
9:55 AM 50.0 °F - 23.0 °F 35% 29.98 in 10.0 mi West 35.7 mph 49.5 mph N/A   Clear
10:15 AM 48.2 °F - 26.6 °F 43% 30.00 in 10.0 mi West 32.2 mph 40.3 mph N/A   Clear
10:35 AM 50.0 °F - 28.4 °F 43% 30.00 in 10.0 mi WSW 24.2 mph 32.2 mph N/A   Clear
10:55 AM 48.2 °F - 28.4 °F 46% 30.00 in 10.0 mi WSW 17.3 mph 31.1 mph N/A   Clear
11:15 AM 50.0 °F - 26.6 °F 40% 30.00 in 10.0 mi WSW 20.7 mph 26.5 mph N/A   Clear
11:35 AM 50.0 °F - 24.8 °F 37% 30.01 in 10.0 mi West 20.7 mph 28.8 mph N/A   Clear
11:55 AM 46.4 °F 38.5 °F 30.2 °F 53% 30.03 in 10.0 mi West 21.9 mph 31.1 mph N/A   Clear
12:15 PM 46.4 °F 39.5 °F 30.2 °F 53% 30.05 in 10.0 mi West 17.3 mph 21.9 mph N/A   Clear
12:35 PM 46.4 °F 39.0 °F 23.0 °F 40% 30.03 in 10.0 mi West 19.6 mph 28.8 mph N/A   Clear
12:55 PM 46.4 °F 39.2 °F 21.2 °F 37% 30.07 in 10.0 mi West 18.4 mph 34.5 mph N/A   Clear
1:15 PM 44.6 °F 38.8 °F 14.0 °F 29% 30.08 in 10.0 mi WSW 11.5 mph 34.5 mph N/A   Scattered Clouds
1:35 PM 44.6 °F 37.2 °F 10.4 °F 25% 30.08 in 10.0 mi West 17.3 mph 24.2 mph N/A   Clear
1:55 PM 44.6 °F 38.1 °F 12.2 °F 27% 30.08 in 10.0 mi West 13.8 mph 31.1 mph N/A   Clear
2:15 PM 44.6 °F 41.4 °F 10.4 °F 25% 30.10 in 10.0 mi WNW 5.8 mph - N/A   Clear
2:35 PM 44.6 °F 41.4 °F 8.6 °F 23% 30.12 in 10.0 mi NNW 5.8 mph - N/A   Clear
2:55 PM 44.6 °F 37.8 °F 10.4 °F 25% 30.13 in 10.0 mi WNW 15.0 mph 21.9 mph N/A   Clear
3:15 PM 42.8 °F 36.6 °F 12.2 °F 29% 30.15 in 10.0 mi WNW 11.5 mph 19.6 mph N/A   Clear
3:35 PM 42.8 °F 35.8 °F 12.2 °F 29% 30.16 in 10.0 mi West 13.8 mph 20.7 mph N/A   Clear
3:55 PM 39.2 °F 35.0 °F 12.2 °F 33% 30.17 in 10.0 mi WNW 5.8 mph - N/A   Scattered Clouds
4:15 PM 37.4 °F 34.9 °F 21.2 °F 52% 30.18 in 10.0 mi East 3.5 mph - N/A   Mostly Cloudy
4:35 PM 35.6 °F 27.1 °F 19.4 °F 52% 30.20 in 10.0 mi NNE 12.7 mph 18.4 mph N/A   Scattered Clouds
4:55 PM 35.6 °F 29.9 °F 19.4 °F 52% 30.23 in 10.0 mi North 6.9 mph - N/A   Overcast
5:15 PM 35.6 °F 27.1 °F 19.4 °F 52% 30.24 in 10.0 mi NNE 12.7 mph - N/A   Overcast
5:35 PM 33.8 °F 28.6 °F 17.6 °F 52% 30.24 in 10.0 mi West 5.8 mph - N/A   Mostly Cloudy
5:55 PM 33.8 °F 28.6 °F 19.4 °F 56% 30.24 in 10.0 mi SW 5.8 mph - N/A   Scattered Clouds
6:15 PM 33.8 °F 30.8 °F 19.4 °F 56% 30.25 in 10.0 mi West 3.5 mph - N/A   Clear
6:35 PM 33.8 °F 25.3 °F 14.0 °F 44% 30.26 in 10.0 mi West 11.5 mph - N/A   Clear
6:55 PM 35.6 °F 28.0 °F 10.4 °F 35% 30.26 in 10.0 mi WSW 10.4 mph - N/A   Clear
7:15 PM 33.8 °F 27.7 °F 8.6 °F 35% 30.26 in 10.0 mi WSW 6.9 mph - N/A   Clear
7:35 PM 33.8 °F 28.6 °F 8.6 °F 35% 30.26 in 10.0 mi WSW 5.8 mph - N/A   Clear
7:55 PM 33.8 °F 29.6 °F 6.8 °F 32% 30.26 in 10.0 mi West 4.6 mph - N/A   Clear
8:15 PM 33.8 °F - 5.0 °F 30% 30.26 in 10.0 mi Calm Calm - N/A   Clear
8:35 PM 32.0 °F - 5.0 °F 32% 30.26 in 10.0 mi Calm Calm - N/A   Clear
8:55 PM 33.8 °F - 5.0 °F 30% 30.25 in 10.0 mi Calm Calm - N/A   Clear
9:15 PM 33.8 °F 29.6 °F 6.8 °F 32% 30.24 in 10.0 mi SW 4.6 mph - N/A   Clear
9:35 PM 33.8 °F 30.8 °F 5.0 °F 30% 30.24 in 10.0 mi WSW 3.5 mph - N/A   Clear
9:55 PM 33.8 °F 30.8 °F 6.8 °F 32% 30.24 in 10.0 mi South 3.5 mph - N/A   Clear
10:15 PM 32.0 °F 28.7 °F 8.6 °F 38% 30.24 in 10.0 mi SW 3.5 mph - N/A   Clear
10:35 PM 32.0 °F 28.7 °F 6.8 °F 35% 30.24 in 10.0 mi South 3.5 mph - N/A   Clear
10:55 PM 32.0 °F 28.7 °F 8.6 °F 38% 30.24 in 10.0 mi SSW 3.5 mph - N/A   Clear
11:15 PM 32.0 °F 27.5 °F 6.8 °F 35% 30.24 in 10.0 mi SW 4.6 mph - N/A   Clear
11:35 PM 32.0 °F 24.2 °F 5.0 °F 32% 30.24 in 10.0 mi SW 9.2 mph - N/A   Clear
11:55 PM 32.0 °F 24.2 °F 5.0 °F 32% 30.24 in 10.0 mi SW 9.2 mph - N/A   Clear